Regional Weather Roundup
Issued by NWS

Home | Current Version | Previous Version | Text Only | Print | Product List | Glossary Off
Versions: 1 2 3 4 5 6 7 8 9 10 11 12 13 14 15 16 17 18 19 20 21 22 23 24 25 26 27 28 29 30 31 32 33 34 35 36 37 38 39 40 41 42 43 44 45 46 47 48 49 50

000
ASUS45 KTFX 060010
RWRMT
MONTANA REGIONAL WEATHER ROUNDUP
NATIONAL WEATHER SERVICE GREAT FALLS MT
600 PM MDT SUN JUL 05 2015

NOTE: "FAIR" INDICATES FEW OR NO CLOUDS BELOW 12000 FEET WITH NO
SIGNIFICANT WEATHER AND/OR OBSTRUCTIONS TO VISIBILITY.

MTZ001>007-043-060100-
WEST OF THE DIVIDE

CITY           SKY/WX    TMP DP  RH WIND       PRES   REMARKS
KALISPELL      MOCLDY    67  42  40 NE22G28   30.14R
MISSOULA       MOSUNNY   73  48  41 E9        30.03R
BUTTE          CLOUDY    65  48  54 MISG      30.12R
MULLAN PASS    MOSUNNY   69  49  48 VRB5      30.14R
DEER LODGE       N/A     61  46  59 N18       30.16R
EUREKA           N/A     72  39  30 NE8       30.10S
HAMILTON         N/A     72  52  49 N13       29.99R
LIBBY            N/A     72  43  35 NE6       30.09R
RONAN            N/A     66  48  52 N17       30.12R
$$

MTZ008-052>055-060100-
SOUTHWEST MONTANA

CITY           SKY/WX    TMP DP  RH WIND       PRES   REMARKS
BOZEMAN        CLOUDY    65  50  58 W6        30.11R
DILLON           N/A     58  53  84 MISG      30.08R THUNDER HAZE
W YELLOWSTONE  CLOUDY    70  50  49 SW14      30.12F
THREE FORKS      N/A     62  56  81 N14       30.12R
TWIN BRIDGES     N/A     59  50  72 N24       30.05R
$$

MTZ009-010-012-014-046-048-049-054-060100-
EAST SLOPES AND CENTRAL MONTANA

CITY           SKY/WX    TMP DP  RH WIND       PRES   REMARKS
CUT BANK       CLOUDY    53  48  83 E5        30.23S
GREAT FALLS    CLOUDY    53  50  89 N5        30.21R
MALMSTROM AFB  CLOUDY    52  50  93 NE5       30.22R
HELENA         LGT RAIN  54  50  86 N12       30.16F FOG
$$

MTZ011-013-016-021-045-047-050-051-060100-
NORTH CENTRAL MONTANA

CITY           SKY/WX    TMP DP  RH WIND       PRES   REMARKS
HAVRE          CLOUDY    61  51  70 MISG      30.16S
LEWISTOWN      LGT RAIN  54  50  86 SE5       30.19S FOG
CHINOOK          N/A     63  52  67 W6        30.15R
FORT BENTON      N/A     55  52  88 SW5       30.21S
$$

MTZ017>020-022>027-061-062-060100-
NORTHEAST MONTANA

CITY           SKY/WX    TMP DP  RH WIND       PRES   REMARKS
GLASGOW        PTSUNNY   69  47  45 W12       30.08S
JORDAN           N/A     60  53  77 NW14      30.13S
SIDNEY         CLOUDY    72  48  43 NW10      30.03S
WOLF POINT     LGT RAIN  67  52  58 W8        30.08R
PLENTYWOOD       N/A     70  46  43 NW12G20   30.04R
POPLAR           N/A     70  50  49 W9        30.06R
$$

MTZ028>42-056>058-060100-
SOUTHCENTRAL AND SOUTHEAST MONTANA

CITY           SKY/WX    TMP DP  RH WIND       PRES   REMARKS
BAKER          CLOUDY    67  53  61 NW9       30.07R HAZE
BILLINGS       CLOUDY    64  46  52 NE7       30.14S
LIVINGSTON     CLOUDY    62  46  55 E16       30.13S
MILES CITY     CLOUDY    71  48  43 N13       30.06S
FORSYTH          N/A     70  48  46 NW13      30.08S
LAUREL           N/A     63  44  49 N6        30.12R
ROUNDUP          N/A     61  47  59 N12       30.06S
$$

REGIONAL REPORTS...DAKOTAS

CITY           SKY/WX    TMP DP  RH WIND       PRES   REMARKS
WILLISTON      CLOUDY    73  46  38 N14       30.02R
MINOT          CLOUDY    72  56  57 NW8       29.92S HAZE
DICKINSON      CLOUDY    67  57  70 NW7       29.99S HAZE
BEACH          CLOUDY    66  57  72 N10G17    30.05R
CROSBY         FAIR      66  54  63 NW12      30.02R
BISMARCK       CLOUDY    72  60  66 NW6       29.93R
GRAND FORKS    PTSUNNY   75  66  73 N9        29.81R
FARGO          PTSUNNY   77  68  73 NW21      29.79R
BUFFALO SD       N/A     63  55  75 N14       30.00R
RAPID CITY     RAIN      65  63  93 N23       29.98R FOG
$$

REGIONAL REPORTS...WYOMING/IDAHO/WASHINGTON

CITY           SKY/WX    TMP DP  RH WIND       PRES   REMARKS
GILLETTE       LGT RAIN  58  56  93 N16       30.10S FOG
SHERIDAN       LGT RAIN  58  55  90 N7        30.13S FOG
BUFFALO WY     LGT RAIN  55  54  96 N13       30.15S FOG
CODY           CLOUDY    55  52  88 N13       30.15R
YELLOWSTONE LA   N/A     63  46  54 W5        30.24S
IDAHO FALLS    PTSUNNY   82  50  32 S15       30.00F
SALMON         CLOUDY    82  48  30 SW10      29.86S
BOISE          LGT RAIN  76  59  55 E6        29.98R
SPOKANE        PTSUNNY   86  43  22 NE17G23   29.93R
$$

REGIONAL REPORTS...ALBERTA

CITY           SKY/WX    TMP DP  RH WIND       PRES   REMARKS
EDMONTON       MOSUNNY   66  37  34 N6        30.16S
CALGARY        MOSUNNY   63  43  48 NE16      30.22R
LETHBRIDGE     PTSUNNY   61  46  59 NE8       30.21R
MEDICINE HAT   CLOUDY    64  46  52 NW10      30.15S
MILK RIVER       N/A     57  48  72 NW8         N/A
ONEFOUR          N/A     59  48  67 W14         N/A
$$

REGIONAL REPORTS...SASKATCHEWAN

CITY           SKY/WX    TMP DP  RH WIND       PRES   REMARKS
SWIFT CURRENT  CLOUDY    61  50  67 NW10      30.10R
REGINA         MOSUNNY   66  48  52 NW14G22   30.04R
SASKATOON      PTSUNNY   63  46  55 N17G23    30.09R
CYPRESS HILLS    N/A     54  45  71 NW3         N/A
VAL MARIE        N/A     63  46  55 NW10        N/A
ASSINIBOIA       N/A     66  39  37 N9          N/A
$$


USA.gov is the U.S. government's official web portal to all federal, state and local government web resources and services.